sat.trackr.live / text

‹ back to catalog

STARLINK-36841

NORAD 67960 · 2026-037AE

PAYLOAD ACTIVE UNKNOWN

§ Identity

Operator
Country
US
Launch date
2026-02-24
Launch site
AFETR
Launch vehicle
Mass (kg)
RCS (m²)

Purposes: comms

External: N2YO · Heavens-Above · Gunter

§ Orbital elements

Epoch: 2026-09-19T02:35:19.233600Z

Period
94.27 min
Inclination
43.0009°
Eccentricity
0.0001449
Mean motion
15.27581988 rev/d
Perigee alt
482.0 km
Apogee alt
484.0 km
Semi-major
6,861.2 km
B*
4.6813e-4
RAAN
178.2096°
Arg perigee
270.3754°
Mean anomaly
89.6931°
Rev number
3,292

§ Raw data

STARLINK-368411 67960U 26037AE  26262.10786150  .00012643  00000+0  46813-3 0  99922 67960  43.0009 178.2096 0001449 270.3754  89.6931 15.27581988 32921

JSON: /api/v1/satellites/67960 · /tle

For live sub-satellite position, see the globe view (requires WebGL).

§ Visibility from observer

Set your observer location to see the next 7 days of passes ≥ 10°. The values pass through the URL so the page stays shareable.

No JS? Fill the form by hand. The geolocation button needs JavaScript.